Вернуться в каталог

HISPASAT 1B

АктивенСвязьGEO
NORAD 22723·PAYLOAD·🇪🇸 Spain

Запущен Jul 22, 1993 с Guiana Space Centre

Loading…

TLE

СвежийSource: Space-Track

Эпоха: Sep 13, 2026, 17:51 UTC

1 22723U 93048A   26256.74398125 -.00000351  00000-0  00000-0 0  9990
2 22723  13.7952  12.4260 0002991 284.7508  85.6785  0.99724123120723

Отслеживайте HISPASAT 1B в реальном времени с AllMySat

Download on the App Store